owner,sensor,date,latitude,longitude,vertical_datum,sea_water_practical_salinity,qcFlag 
DISL,ioos:station:DISL:MBLA:1,2010-02-03T00:03:00Z,30.4367,-88.0117,2.907,4.38,1111122 
DISL,ioos:station:DISL:MBLA:1,2010-02-03T00:05:00Z,30.4367,-88.0117,2.483,2.51,1111122 
DISL,ioos:station:DISL:MBLA:1,2010-02-03T00:07:00Z,30.4367,-88.0117,1.97,3.9,1111122 
DISL,ioos:station:DISL:MBLA:1,2010-02-03T00:10:00Z,30.4367,-88.0117,1.445,1.34,1111122 
DISL,ioos:station:DISL:MBLA:1,2010-02-03T00:12:00Z,30.4367,-88.0117,0.976,0.87,1111122 
DISL,ioos:station:DISL:MBLA:1,2010-02-03T00:15:00Z,30.4367,-88.0117,0.433,0.6,1111122 
DISL,ioos:station:DISL:MBLA:1,2010-02-03T01:03:00Z,30.4367,-88.0117,2.967,8.04,1111122 
DISL,ioos:station:DISL:MBLA:1,2010-02-03T01:05:00Z,30.4367,-88.0117,2.528,4.33,1111122 
DISL,ioos:station:DISL:MBLA:1,2010-02-03T01:07:00Z,30.4367,-88.0117,1.981,3.22,1111122 
DISL,ioos:station:DISL:MBLA:1,2010-02-03T01:10:00Z,30.4367,-88.0117,1.463,1.57,1111122 
DISL,ioos:station:DISL:MBLA:1,2010-02-03T01:12:00Z,30.4367,-88.0117,0.922,0.86,1111122 
DISL,ioos:station:DISL:MBLA:1,2010-02-03T01:15:00Z,30.4367,-88.0117,0.465,0.64,1111122 
DISL,ioos:station:DISL:MBLA:1,2010-02-03T02:03:00Z,30.4367,-88.0117,2.948,5.06,1111122 
DISL,ioos:station:DISL:MBLA:1,2010-02-03T02:05:00Z,30.4367,-88.0117,2.532,2.79,1111122 
DISL,ioos:station:DISL:MBLA:1,2010-02-03T02:07:00Z,30.4367,-88.0117,2.048,2.25,1111122 
DISL,ioos:station:DISL:MBLA:1,2010-02-03T02:10:00Z,30.4367,-88.0117,1.48,1.34,1111122 
DISL,ioos:station:DISL:MBLA:1,2010-02-03T02:12:00Z,30.4367,-88.0117,0.949,0.85,1111122 
DISL,ioos:station:DISL:MBLA:1,2010-02-03T02:15:00Z,30.4367,-88.0117,0.492,0.64,1111122 
DISL,ioos:station:DISL:MBLA:1,2010-02-03T03:03:00Z,30.4367,-88.0117,2.95,10.01,1111122 
DISL,ioos:station:DISL:MBLA:1,2010-02-03T16:53:00Z,30.4367,-88.0117,1.978,1.21,1111122 
DISL,ioos:station:DISL:MBLA:1,2010-02-03T17:03:00Z,30.4367,-88.0117,2.918,5.99,1111122 
DISL,ioos:station:DISL:MBLA:1,2010-02-03T17:05:00Z,30.4367,-88.0117,2.485,2.02,1111122 
DISL,ioos:station:DISL:MBLA:1,2010-02-03T17:07:00Z,30.4367,-88.0117,1.961,1.07,1111122 
DISL,ioos:station:DISL:MBLA:1,2010-02-03T17:10:00Z,30.4367,-88.0117,1.417,0.76,1111122 
DISL,ioos:station:DISL:MBLA:1,2010-02-03T17:12:00Z,30.4367,-88.0117,1.083,0.78,1111122 
DISL,ioos:station:DISL:MBLA:1,2010-02-03T17:15:00Z,30.4367,-88.0117,0.542,0.76,1111122 
DISL,ioos:station:DISL:MBLA:1,2010-02-03T18:03:00Z,30.4367,-88.0117,2.999,3.92,1111122 
DISL,ioos:station:DISL:MBLA:1,2010-02-03T18:05:00Z,30.4367,-88.0117,2.488,1.01,1111122 
DISL,ioos:station:DISL:MBLA:1,2010-02-03T18:08:00Z,30.4367,-88.0117,2.042,0.91,1111122 
DISL,ioos:station:DISL:MBLA:1,2010-02-03T18:10:00Z,30.4367,-88.0117,1.505,0.95,1111122 
DISL,ioos:station:DISL:MBLA:1,2010-02-03T18:12:00Z,30.4367,-88.0117,0.868,0.91,1111122 
DISL,ioos:station:DISL:MBLA:1,2010-02-03T18:15:00Z,30.4367,-88.0117,0.451,0.92,1111122 
DISL,ioos:station:DISL:MBLA:1,2010-02-03T19:03:00Z,30.4367,-88.0117,2.962,5.02,1111122 
DISL,ioos:station:DISL:MBLA:1,2010-02-03T19:05:00Z,30.4367,-88.0117,2.526,2.77,1111122 
DISL,ioos:station:DISL:MBLA:1,2010-02-03T19:07:00Z,30.4367,-88.0117,1.996,2.31,1111122 
DISL,ioos:station:DISL:MBLA:1,2010-02-03T19:10:00Z,30.4367,-88.0117,1.367,2.12,1111122 
DISL,ioos:station:DISL:MBLA:1,2010-02-03T19:12:00Z,30.4367,-88.0117,0.96,2.0,1111122 
DISL,ioos:station:DISL:MBLA:1,2010-02-03T19:15:00Z,30.4367,-88.0117,0.558,1.98,1111122 
DISL,ioos:station:DISL:MBLA:1,2010-02-03T20:03:00Z,30.4367,-88.0117,3.016,5.61,1111122 
DISL,ioos:station:DISL:MBLA:1,2010-02-03T20:05:00Z,30.4367,-88.0117,2.441,2.9,1111122 
DISL,ioos:station:DISL:MBLA:1,2010-02-03T20:07:00Z,30.4367,-88.0117,1.933,3.15,1111122 
DISL,ioos:station:DISL:MBLA:1,2010-02-03T20:10:00Z,30.4367,-88.0117,1.544,2.59,1111122 
DISL,ioos:station:DISL:MBLA:1,2010-02-03T20:13:00Z,30.4367,-88.0117,1.127,2.72,1111122 
DISL,ioos:station:DISL:MBLA:1,2010-02-03T20:15:00Z,30.4367,-88.0117,0.566,2.7,1111122 
DISL,ioos:station:DISL:MBLA:1,2010-02-03T21:03:00Z,30.4367,-88.0117,3.02,3.72,1111122 
DISL,ioos:station:DISL:MBLA:1,2010-02-03T21:05:00Z,30.4367,-88.0117,2.544,3.32,1111122 
DISL,ioos:station:DISL:MBLA:1,2010-02-03T21:07:00Z,30.4367,-88.0117,1.86,2.78,1111122 
DISL,ioos:station:DISL:MBLA:1,2010-02-03T21:10:00Z,30.4367,-88.0117,1.489,2.61,1111122 
DISL,ioos:station:DISL:MBLA:1,2010-02-03T21:13:00Z,30.4367,-88.0117,0.992,2.58,1111122 
DISL,ioos:station:DISL:MBLA:1,2010-02-03T21:15:00Z,30.4367,-88.0117,0.387,2.61,1111122 
DISL,ioos:station:DISL:MBLA:1,2010-02-03T22:03:00Z,30.4367,-88.0117,2.939,6.34,1111122 
DISL,ioos:station:DISL:MBLA:1,2010-02-03T22:05:00Z,30.4367,-88.0117,2.52,3.6,1111122 
DISL,ioos:station:DISL:MBLA:1,2010-02-03T22:07:00Z,30.4367,-88.0117,2.021,3.37,1111122 
DISL,ioos:station:DISL:MBLA:1,2010-02-03T22:10:00Z,30.4367,-88.0117,1.568,2.86,1111122 
DISL,ioos:station:DISL:MBLA:1,2010-02-03T22:12:00Z,30.4367,-88.0117,0.863,2.87,1111122 
DISL,ioos:station:DISL:MBLA:1,2010-02-03T22:15:00Z,30.4367,-88.0117,0.463,2.72,1111122 
DISL,ioos:station:DISL:MBLA:1,2010-02-03T23:02:00Z,30.4367,-88.0117,3.06,7.51,1111122 
DISL,ioos:station:DISL:MBLA:1,2010-02-03T23:05:00Z,30.4367,-88.0117,2.554,6.07,1111122 
DISL,ioos:station:DISL:MBLA:1,2010-02-03T23:07:00Z,30.4367,-88.0117,2.104,5.84,1111122 
DISL,ioos:station:DISL:MBLA:1,2010-02-03T23:10:00Z,30.4367,-88.0117,1.547,6.06,1111122 
DISL,ioos:station:DISL:MBLA:1,2010-02-03T23:12:00Z,30.4367,-88.0117,1.151,4.63,1111122 
DISL,ioos:station:DISL:MBLA:1,2010-02-03T23:15:00Z,30.4367,-88.0117,0.917,4.22,1111122 
DISL,ioos:station:DISL:MBLA:1,2010-02-10T00:03:00Z,30.4367,-88.0117,3.209,7.45,1111122 
DISL,ioos:station:DISL:MBLA:1,2010-02-10T00:05:00Z,30.4367,-88.0117,2.536,6.23,1111122 
DISL,ioos:station:DISL:MBLA:1,2010-02-10T00:08:00Z,30.4367,-88.0117,2.1,5.74,1111122 
DISL,ioos:station:DISL:MBLA:1,2010-02-10T00:10:00Z,30.4367,-88.0117,1.499,5.19,1111122 
DISL,ioos:station:DISL:MBLA:1,2010-02-10T00:13:00Z,30.4367,-88.0117,0.974,5.34,1111122 
DISL,ioos:station:DISL:MBLA:1,2010-02-10T00:15:00Z,30.4367,-88.0117,0.508,4.96,1111122 
DISL,ioos:station:DISL:MBLA:1,2010-02-10T01:03:00Z,30.4367,-88.0117,3.063,8.37,1111122 
DISL,ioos:station:DISL:MBLA:1,2010-02-10T01:05:00Z,30.4367,-88.0117,2.512,5.96,1111122 
DISL,ioos:station:DISL:MBLA:1,2010-02-10T01:08:00Z,30.4367,-88.0117,1.947,5.35,1111122 
DISL,ioos:station:DISL:MBLA:1,2010-02-10T01:10:00Z,30.4367,-88.0117,1.509,5.28,1111122 
DISL,ioos:station:DISL:MBLA:1,2010-02-10T01:13:00Z,30.4367,-88.0117,1.164,4.95,1111122 
DISL,ioos:station:DISL:MBLA:1,2010-02-10T01:15:00Z,30.4367,-88.0117,0.381,4.89,1111122 
DISL,ioos:station:DISL:MBLA:1,2010-02-10T02:03:00Z,30.4367,-88.0117,3.032,6.86,1111122 
DISL,ioos:station:DISL:MBLA:1,2010-02-10T02:05:00Z,30.4367,-88.0117,2.576,6.18,1111122 
DISL,ioos:station:DISL:MBLA:1,2010-02-10T02:08:00Z,30.4367,-88.0117,2.07,5.76,1111122 
DISL,ioos:station:DISL:MBLA:1,2010-02-10T02:10:00Z,30.4367,-88.0117,1.436,5.74,1111122 
DISL,ioos:station:DISL:MBLA:1,2010-02-10T02:12:00Z,30.4367,-88.0117,0.816,5.59,1111122 
DISL,ioos:station:DISL:MBLA:1,2010-02-10T02:15:00Z,30.4367,-88.0117,0.496,4.98,1111122 
DISL,ioos:station:DISL:MBLA:1,2010-02-10T03:03:00Z,30.4367,-88.0117,2.909,7.24,1111122 
DISL,ioos:station:DISL:MBLA:1,2010-02-10T03:05:00Z,30.4367,-88.0117,2.438,6.25,1111122 
DISL,ioos:station:DISL:MBLA:1,2010-02-10T03:07:00Z,30.4367,-88.0117,1.99,5.55,1111122 
DISL,ioos:station:DISL:MBLA:1,2010-02-10T03:10:00Z,30.4367,-88.0117,1.484,5.07,1111122 
DISL,ioos:station:DISL:MBLA:1,2010-02-10T03:12:00Z,30.4367,-88.0117,1.004,5.03,1111122 
DISL,ioos:station:DISL:MBLA:1,2010-02-10T03:15:00Z,30.4367,-88.0117,0.575,5.06,1111122 
DISL,ioos:station:DISL:MBLA:1,2010-02-10T04:03:00Z,30.4367,-88.0117,2.93,6.13,1111122 
DISL,ioos:station:DISL:MBLA:1,2010-02-10T04:05:00Z,30.4367,-88.0117,2.505,5.51,1111122 
DISL,ioos:station:DISL:MBLA:1,2010-02-10T04:08:00Z,30.4367,-88.0117,2.089,5.24,1111122 
DISL,ioos:station:DISL:MBLA:1,2010-02-10T04:10:00Z,30.4367,-88.0117,1.53,5.18,1111122 
DISL,ioos:station:DISL:MBLA:1,2010-02-10T04:13:00Z,30.4367,-88.0117,1.09,5.07,1111122 
DISL,ioos:station:DISL:MBLA:1,2010-02-10T04:15:00Z,30.4367,-88.0117,0.615,5.0,1111122 
DISL,ioos:station:DISL:MBLA:1,2010-02-10T05:03:00Z,30.4367,-88.0117,2.854,5.3,1111122 
DISL,ioos:station:DISL:MBLA:1,2010-02-10T05:05:00Z,30.4367,-88.0117,2.38,5.14,1111122 
DISL,ioos:station:DISL:MBLA:1,2010-02-10T05:08:00Z,30.4367,-88.0117,2.064,5.15,1111122 
DISL,ioos:station:DISL:MBLA:1,2010-02-10T05:11:00Z,30.4367,-88.0117,1.55,5.06,1111122 
DISL,ioos:station:DISL:MBLA:1,2010-02-10T05:14:00Z,30.4367,-88.0117,0.842,5.1,1111122 
DISL,ioos:station:DISL:MBLA:1,2010-02-10T05:16:00Z,30.4367,-88.0117,0.654,5.15,1111122 
DISL,ioos:station:DISL:MBLA:1,2010-02-10T06:03:00Z,30.4367,-88.0117,2.922,5.77,1111122 
DISL,ioos:station:DISL:MBLA:1,2010-02-10T06:06:00Z,30.4367,-88.0117,2.639,5.37,1111122 
DISL,ioos:station:DISL:MBLA:1,2010-02-10T06:08:00Z,30.4367,-88.0117,2.199,5.28,1111122 
DISL,ioos:station:DISL:MBLA:1,2010-02-10T06:11:00Z,30.4367,-88.0117,1.712,5.24,1111122 
DISL,ioos:station:DISL:MBLA:1,2010-02-10T06:13:00Z,30.4367,-88.0117,1.072,5.18,1111122 
DISL,ioos:station:DISL:MBLA:1,2010-02-10T06:16:00Z,30.4367,-88.0117,0.843,5.12,1111122 
DISL,ioos:station:DISL:MBLA:1,2010-02-10T07:03:00Z,30.4367,-88.0117,2.836,7.23,1111122 
DISL,ioos:station:DISL:MBLA:1,2010-02-10T07:05:00Z,30.4367,-88.0117,2.577,4.99,1111122 
DISL,ioos:station:DISL:MBLA:1,2010-02-10T07:07:00Z,30.4367,-88.0117,2.001,4.48,1111122 
DISL,ioos:station:DISL:MBLA:1,2010-02-10T07:10:00Z,30.4367,-88.0117,1.359,4.17,1111122 
DISL,ioos:station:DISL:MBLA:1,2010-02-10T07:13:00Z,30.4367,-88.0117,1.11,4.02,1111122 
DISL,ioos:station:DISL:MBLA:1,2010-02-10T07:15:00Z,30.4367,-88.0117,0.482,3.98,1111122 
DISL,ioos:station:DISL:MBLA:1,2010-02-10T08:03:00Z,30.4367,-88.0117,2.875,4.16,1111122 
DISL,ioos:station:DISL:MBLA:1,2010-02-10T08:05:00Z,30.4367,-88.0117,2.47,3.51,1111122 
DISL,ioos:station:DISL:MBLA:1,2010-02-10T08:08:00Z,30.4367,-88.0117,2.028,3.35,1111122 
DISL,ioos:station:DISL:MBLA:1,2010-02-10T08:10:00Z,30.4367,-88.0117,1.385,3.1,1111122 
DISL,ioos:station:DISL:MBLA:1,2010-02-10T08:13:00Z,30.4367,-88.0117,1.068,3.03,1111122 
DISL,ioos:station:DISL:MBLA:1,2010-02-10T08:16:00Z,30.4367,-88.0117,0.355,3.06,1111122 
DISL,ioos:station:DISL:MBLA:1,2010-02-10T09:02:00Z,30.4367,-88.0117,2.991,3.93,1111122 
DISL,ioos:station:DISL:MBLA:1,2010-02-10T09:05:00Z,30.4367,-88.0117,2.522,3.17,1111122 
DISL,ioos:station:DISL:MBLA:1,2010-02-10T09:08:00Z,30.4367,-88.0117,2.193,2.95,1111122 
DISL,ioos:station:DISL:MBLA:1,2010-02-10T09:10:00Z,30.4367,-88.0117,1.27,2.82,1111122 
DISL,ioos:station:DISL:MBLA:1,2010-02-10T09:13:00Z,30.4367,-88.0117,0.998,2.84,1111122 
DISL,ioos:station:DISL:MBLA:1,2010-02-10T09:16:00Z,30.4367,-88.0117,0.579,2.69,1111122 
DISL,ioos:station:DISL:MBLA:1,2010-02-10T10:03:00Z,30.4367,-88.0117,3.059,2.59,1111122 
DISL,ioos:station:DISL:MBLA:1,2010-02-10T10:05:00Z,30.4367,-88.0117,2.402,2.51,1111122 
DISL,ioos:station:DISL:MBLA:1,2010-02-10T10:08:00Z,30.4367,-88.0117,2.094,2.42,1111122 
DISL,ioos:station:DISL:MBLA:1,2010-02-10T10:10:00Z,30.4367,-88.0117,1.665,2.22,1111122 
DISL,ioos:station:DISL:MBLA:1,2010-02-10T10:15:00Z,30.4367,-88.0117,1.123,2.07,1111122 
DISL,ioos:station:DISL:MBLA:1,2010-02-10T11:03:00Z,30.4367,-88.0117,2.994,2.59,1111122 
DISL,ioos:station:DISL:MBLA:1,2010-02-10T11:05:00Z,30.4367,-88.0117,2.524,2.53,1111122 
DISL,ioos:station:DISL:MBLA:1,2010-02-10T11:08:00Z,30.4367,-88.0117,2.132,2.56,1111122 
DISL,ioos:station:DISL:MBLA:1,2010-02-10T11:10:00Z,30.4367,-88.0117,1.591,2.57,1111122 
DISL,ioos:station:DISL:MBLA:1,2010-02-10T11:13:00Z,30.4367,-88.0117,1.045,2.58,1111122 
DISL,ioos:station:DISL:MBLA:1,2010-02-10T11:15:00Z,30.4367,-88.0117,0.68,2.57,1111122 
DISL,ioos:station:DISL:MBLA:1,2010-02-10T12:03:00Z,30.4367,-88.0117,2.985,3.32,1111122 
DISL,ioos:station:DISL:MBLA:1,2010-02-10T12:05:00Z,30.4367,-88.0117,2.502,2.62,1111122 
DISL,ioos:station:DISL:MBLA:1,2010-02-10T12:08:00Z,30.4367,-88.0117,1.95,2.51,1111122 
DISL,ioos:station:DISL:MBLA:1,2010-02-10T12:10:00Z,30.4367,-88.0117,1.652,2.3,1111122 
DISL,ioos:station:DISL:MBLA:1,2010-02-10T12:13:00Z,30.4367,-88.0117,1.064,2.39,1111122 
DISL,ioos:station:DISL:MBLA:1,2010-02-10T12:15:00Z,30.4367,-88.0117,0.323,2.06,1111122 
DISL,ioos:station:DISL:MBLA:1,2010-02-10T13:03:00Z,30.4367,-88.0117,2.839,4.9,1111122 
DISL,ioos:station:DISL:MBLA:1,2010-02-10T13:05:00Z,30.4367,-88.0117,2.351,3.93,1111122 
DISL,ioos:station:DISL:MBLA:1,2010-02-10T13:07:00Z,30.4367,-88.0117,1.992,3.64,1111122 
DISL,ioos:station:DISL:MBLA:1,2010-02-10T13:10:00Z,30.4367,-88.0117,1.6,3.81,1111122 
DISL,ioos:station:DISL:MBLA:1,2010-02-10T13:13:00Z,30.4367,-88.0117,1.392,3.67,1111122 
DISL,ioos:station:DISL:MBLA:1,2010-02-10T13:15:00Z,30.4367,-88.0117,0.561,3.69,1111122 
DISL,ioos:station:DISL:MBLA:1,2010-02-10T14:03:00Z,30.4367,-88.0117,3.122,5.06,1111122 
DISL,ioos:station:DISL:MBLA:1,2010-02-10T14:05:00Z,30.4367,-88.0117,2.283,4.91,1111122 
DISL,ioos:station:DISL:MBLA:1,2010-02-10T14:08:00Z,30.4367,-88.0117,1.847,4.57,1111122 
DISL,ioos:station:DISL:MBLA:1,2010-02-10T14:11:00Z,30.4367,-88.0117,1.371,4.6,1111122 
DISL,ioos:station:DISL:MBLA:1,2010-02-10T14:14:00Z,30.4367,-88.0117,1.072,4.55,1111122 
DISL,ioos:station:DISL:MBLA:1,2010-02-10T14:17:00Z,30.4367,-88.0117,0.331,4.55,1111122 
DISL,ioos:station:DISL:MBLA:1,2010-02-10T15:03:00Z,30.4367,-88.0117,2.891,5.07,1111122 
DISL,ioos:station:DISL:MBLA:1,2010-02-10T15:06:00Z,30.4367,-88.0117,2.517,5.46,1111122 
DISL,ioos:station:DISL:MBLA:1,2010-02-10T15:08:00Z,30.4367,-88.0117,2.047,5.02,1111122 
DISL,ioos:station:DISL:MBLA:1,2010-02-10T15:11:00Z,30.4367,-88.0117,1.552,4.92,1111122 
DISL,ioos:station:DISL:MBLA:1,2010-02-10T15:14:00Z,30.4367,-88.0117,1.053,4.88,1111122 
DISL,ioos:station:DISL:MBLA:1,2010-02-10T15:17:00Z,30.4367,-88.0117,0.472,4.88,1111122 
DISL,ioos:station:DISL:MBLA:1,2010-02-10T16:03:00Z,30.4367,-88.0117,3.015,5.37,1111122 
DISL,ioos:station:DISL:MBLA:1,2010-02-10T16:05:00Z,30.4367,-88.0117,2.59,4.97,1111122 
DISL,ioos:station:DISL:MBLA:1,2010-02-10T16:08:00Z,30.4367,-88.0117,1.921,4.65,1111122 
DISL,ioos:station:DISL:MBLA:1,2010-02-10T16:10:00Z,30.4367,-88.0117,1.575,4.59,1111122 
DISL,ioos:station:DISL:MBLA:1,2010-02-10T16:13:00Z,30.4367,-88.0117,0.792,4.56,1111122 
DISL,ioos:station:DISL:MBLA:1,2010-02-10T16:15:00Z,30.4367,-88.0117,0.399,4.55,1111122 
DISL,ioos:station:DISL:MBLA:1,2010-02-10T17:02:00Z,30.4367,-88.0117,2.984,4.86,1111122 
DISL,ioos:station:DISL:MBLA:1,2010-02-10T17:05:00Z,30.4367,-88.0117,2.483,4.75,1111122 
DISL,ioos:station:DISL:MBLA:1,2010-02-10T17:07:00Z,30.4367,-88.0117,1.892,4.37,1111122 
DISL,ioos:station:DISL:MBLA:1,2010-02-10T17:10:00Z,30.4367,-88.0117,1.471,4.3,1111122 
DISL,ioos:station:DISL:MBLA:1,2010-02-10T17:12:00Z,30.4367,-88.0117,0.992,4.28,1111122 
DISL,ioos:station:DISL:MBLA:1,2010-02-10T17:15:00Z,30.4367,-88.0117,0.573,4.27,1111122 
DISL,ioos:station:DISL:MBLA:1,2010-02-10T18:03:00Z,30.4367,-88.0117,2.987,4.95,1111122 
DISL,ioos:station:DISL:MBLA:1,2010-02-10T18:05:00Z,30.4367,-88.0117,2.481,4.85,1111122 
DISL,ioos:station:DISL:MBLA:1,2010-02-10T18:07:00Z,30.4367,-88.0117,2.018,4.82,1111122 
DISL,ioos:station:DISL:MBLA:1,2010-02-10T18:10:00Z,30.4367,-88.0117,1.565,4.79,1111122 
DISL,ioos:station:DISL:MBLA:1,2010-02-10T18:13:00Z,30.4367,-88.0117,0.984,4.78,1111122 
DISL,ioos:station:DISL:MBLA:1,2010-02-10T18:16:00Z,30.4367,-88.0117,0.464,4.74,1111122 
DISL,ioos:station:DISL:MBLA:1,2010-02-10T19:03:00Z,30.4367,-88.0117,2.919,5.27,1111122 
DISL,ioos:station:DISL:MBLA:1,2010-02-10T19:05:00Z,30.4367,-88.0117,2.482,5.25,1111122 
DISL,ioos:station:DISL:MBLA:1,2010-02-10T19:07:00Z,30.4367,-88.0117,1.978,5.27,1111122 
DISL,ioos:station:DISL:MBLA:1,2010-02-10T19:10:00Z,30.4367,-88.0117,1.457,4.92,1111122 
DISL,ioos:station:DISL:MBLA:1,2010-02-10T19:12:00Z,30.4367,-88.0117,0.996,4.85,1111122 
DISL,ioos:station:DISL:MBLA:1,2010-02-10T19:15:00Z,30.4367,-88.0117,0.546,4.76,1111122 
DISL,ioos:station:DISL:MBLA:1,2010-02-10T20:02:00Z,30.4367,-88.0117,2.973,5.74,1111122 
DISL,ioos:station:DISL:MBLA:1,2010-02-10T20:05:00Z,30.4367,-88.0117,2.475,5.38,1111122 
DISL,ioos:station:DISL:MBLA:1,2010-02-10T20:07:00Z,30.4367,-88.0117,1.968,5.02,1111122 
DISL,ioos:station:DISL:MBLA:1,2010-02-10T20:10:00Z,30.4367,-88.0117,1.504,4.88,1111122 
DISL,ioos:station:DISL:MBLA:1,2010-02-10T20:12:00Z,30.4367,-88.0117,0.954,4.7,1111122 
DISL,ioos:station:DISL:MBLA:1,2010-02-10T20:15:00Z,30.4367,-88.0117,0.468,4.42,1111122 
DISL,ioos:station:DISL:MBLA:1,2010-02-10T21:03:00Z,30.4367,-88.0117,2.937,5.06,1111122 
DISL,ioos:station:DISL:MBLA:1,2010-02-10T21:05:00Z,30.4367,-88.0117,2.498,5.07,1111122 
DISL,ioos:station:DISL:MBLA:1,2010-02-10T21:07:00Z,30.4367,-88.0117,1.997,4.75,1111122 
DISL,ioos:station:DISL:MBLA:1,2010-02-10T21:10:00Z,30.4367,-88.0117,1.469,4.59,1111122 
DISL,ioos:station:DISL:MBLA:1,2010-02-10T21:13:00Z,30.4367,-88.0117,1.069,4.52,1111122 
DISL,ioos:station:DISL:MBLA:1,2010-02-10T21:15:00Z,30.4367,-88.0117,0.528,4.52,1111122 
DISL,ioos:station:DISL:MBLA:1,2010-02-10T22:02:00Z,30.4367,-88.0117,2.958,8.46,1111122 
DISL,ioos:station:DISL:MBLA:1,2010-02-10T22:05:00Z,30.4367,-88.0117,2.531,5.37,1111122 
DISL,ioos:station:DISL:MBLA:1,2010-02-10T22:07:00Z,30.4367,-88.0117,1.973,5.33,1111122 
DISL,ioos:station:DISL:MBLA:1,2010-02-10T22:10:00Z,30.4367,-88.0117,1.437,4.79,1111122 
DISL,ioos:station:DISL:MBLA:1,2010-02-10T22:12:00Z,30.4367,-88.0117,0.972,4.69,1111122 
DISL,ioos:station:DISL:MBLA:1,2010-02-10T22:15:00Z,30.4367,-88.0117,0.53,4.54,1111122 
DISL,ioos:station:DISL:MBLA:1,2010-02-10T23:02:00Z,30.4367,-88.0117,2.933,7.62,1111122 
DISL,ioos:station:DISL:MBLA:1,2010-02-10T23:05:00Z,30.4367,-88.0117,2.528,5.71,1111122 
DISL,ioos:station:DISL:MBLA:1,2010-02-10T23:07:00Z,30.4367,-88.0117,2.052,4.91,1111122 
DISL,ioos:station:DISL:MBLA:1,2010-02-10T23:10:00Z,30.4367,-88.0117,1.482,4.86,1111122 
DISL,ioos:station:DISL:MBLA:1,2010-02-10T23:12:00Z,30.4367,-88.0117,0.965,4.46,1111122 
DISL,ioos:station:DISL:MBLA:1,2010-02-10T23:15:00Z,30.4367,-88.0117,0.514,4.4,1111122 
DISL,ioos:station:DISL:MBLA:1,2010-02-11T00:03:00Z,30.4367,-88.0117,2.925,6.47,1111122 
DISL,ioos:station:DISL:MBLA:1,2010-02-11T00:05:00Z,30.4367,-88.0117,2.512,6.27,1111122 
DISL,ioos:station:DISL:MBLA:1,2010-02-11T00:07:00Z,30.4367,-88.0117,2.046,5.22,1111122 
DISL,ioos:station:DISL:MBLA:1,2010-02-11T00:10:00Z,30.4367,-88.0117,1.522,7.38,1111122 
DISL,ioos:station:DISL:MBLA:1,2010-02-11T00:12:00Z,30.4367,-88.0117,1.134,5.09,1111122 
DISL,ioos:station:DISL:MBLA:1,2010-02-11T00:15:00Z,30.4367,-88.0117,0.403,5.13,1111122 
DISL,ioos:station:DISL:MBLA:1,2010-02-11T01:03:00Z,30.4367,-88.0117,2.94,11.72,1111122 
DISL,ioos:station:DISL:MBLA:1,2010-02-11T01:05:00Z,30.4367,-88.0117,2.434,9.85,1111122 
DISL,ioos:station:DISL:MBLA:1,2010-02-11T01:07:00Z,30.4367,-88.0117,2.027,7.71,1111122 
DISL,ioos:station:DISL:MBLA:1,2010-02-11T01:10:00Z,30.4367,-88.0117,1.44,6.14,1111122 
DISL,ioos:station:DISL:MBLA:1,2010-02-11T01:13:00Z,30.4367,-88.0117,0.867,5.67,1111122 
DISL,ioos:station:DISL:MBLA:1,2010-02-11T01:15:00Z,30.4367,-88.0117,0.484,5.62,1111122 
DISL,ioos:station:DISL:MBLA:1,2010-02-11T02:03:00Z,30.4367,-88.0117,3.054,10.82,1111122 
DISL,ioos:station:DISL:MBLA:1,2010-02-11T02:05:00Z,30.4367,-88.0117,2.537,7.3,1111122 
DISL,ioos:station:DISL:MBLA:1,2010-02-11T02:08:00Z,30.4367,-88.0117,2.069,6.36,1111122 
DISL,ioos:station:DISL:MBLA:1,2010-02-11T02:10:00Z,30.4367,-88.0117,1.494,5.91,1111122 
DISL,ioos:station:DISL:MBLA:1,2010-02-11T02:13:00Z,30.4367,-88.0117,0.966,5.84,1111122 
DISL,ioos:station:DISL:MBLA:1,2010-02-11T02:15:00Z,30.4367,-88.0117,0.604,5.79,1111122 
DISL,ioos:station:DISL:MBLA:1,2010-02-11T03:03:00Z,30.4367,-88.0117,3.015,8.63,1111122 
DISL,ioos:station:DISL:MBLA:1,2010-02-11T03:05:00Z,30.4367,-88.0117,2.547,7.05,1111122 
DISL,ioos:station:DISL:MBLA:1,2010-02-11T03:08:00Z,30.4367,-88.0117,2.009,5.68,1111122 
DISL,ioos:station:DISL:MBLA:1,2010-02-11T03:10:00Z,30.4367,-88.0117,1.506,5.15,1111122 
DISL,ioos:station:DISL:MBLA:1,2010-02-11T03:13:00Z,30.4367,-88.0117,0.995,4.97,1111122 
DISL,ioos:station:DISL:MBLA:1,2010-02-11T03:15:00Z,30.4367,-88.0117,0.482,4.33,1111122 
DISL,ioos:station:DISL:MBLA:1,2010-02-11T04:03:00Z,30.4367,-88.0117,2.918,8.7,1111122 
DISL,ioos:station:DISL:MBLA:1,2010-02-11T04:05:00Z,30.4367,-88.0117,2.513,5.95,1111122 
DISL,ioos:station:DISL:MBLA:1,2010-02-11T04:07:00Z,30.4367,-88.0117,2.044,3.6,1111122 
DISL,ioos:station:DISL:MBLA:1,2010-02-11T04:10:00Z,30.4367,-88.0117,1.551,3.76,1111122 
DISL,ioos:station:DISL:MBLA:1,2010-02-11T04:12:00Z,30.4367,-88.0117,0.982,2.6,1111122 
DISL,ioos:station:DISL:MBLA:1,2010-02-11T04:15:00Z,30.4367,-88.0117,0.57,2.78,1111122 
DISL,ioos:station:DISL:MBLA:1,2010-02-11T05:03:00Z,30.4367,-88.0117,3.086,8.99,1111122 
DISL,ioos:station:DISL:MBLA:1,2010-02-11T05:05:00Z,30.4367,-88.0117,2.574,5.7,1111122 
DISL,ioos:station:DISL:MBLA:1,2010-02-11T05:08:00Z,30.4367,-88.0117,2.055,4.09,1111122 
DISL,ioos:station:DISL:MBLA:1,2010-02-11T05:10:00Z,30.4367,-88.0117,1.573,2.44,1111122 
DISL,ioos:station:DISL:MBLA:1,2010-02-11T05:13:00Z,30.4367,-88.0117,0.959,2.1,1111122 
DISL,ioos:station:DISL:MBLA:1,2010-02-11T05:15:00Z,30.4367,-88.0117,0.467,1.97,1111122 
DISL,ioos:station:DISL:MBLA:1,2010-02-11T06:03:00Z,30.4367,-88.0117,2.919,6.48,1111122 
DISL,ioos:station:DISL:MBLA:1,2010-02-11T06:05:00Z,30.4367,-88.0117,2.504,4.83,1111122 
DISL,ioos:station:DISL:MBLA:1,2010-02-11T06:07:00Z,30.4367,-88.0117,2.024,5.16,1111122 
DISL,ioos:station:DISL:MBLA:1,2010-02-11T06:10:00Z,30.4367,-88.0117,1.544,1.84,1111122 
DISL,ioos:station:DISL:MBLA:1,2010-02-11T06:12:00Z,30.4367,-88.0117,0.987,1.49,1111122 
DISL,ioos:station:DISL:MBLA:1,2010-02-11T06:15:00Z,30.4367,-88.0117,0.467,1.45,1111122 
DISL,ioos:station:DISL:MBLA:1,2010-02-11T07:03:00Z,30.4367,-88.0117,2.901,4.52,1111122 
DISL,ioos:station:DISL:MBLA:1,2010-02-11T07:05:00Z,30.4367,-88.0117,2.491,3.14,1111122 
DISL,ioos:station:DISL:MBLA:1,2010-02-11T07:07:00Z,30.4367,-88.0117,2.022,2.47,1111122 
DISL,ioos:station:DISL:MBLA:1,2010-02-11T07:10:00Z,30.4367,-88.0117,1.545,1.4,1111122 
DISL,ioos:station:DISL:MBLA:1,2010-02-11T07:12:00Z,30.4367,-88.0117,0.976,1.14,1111122 
DISL,ioos:station:DISL:MBLA:1,2010-02-11T07:15:00Z,30.4367,-88.0117,0.466,1.07,1111122 
DISL,ioos:station:DISL:MBLA:1,2010-02-11T08:03:00Z,30.4367,-88.0117,2.983,4.4,1111122 
DISL,ioos:station:DISL:MBLA:1,2010-02-11T08:05:00Z,30.4367,-88.0117,2.535,1.21,1111122 
DISL,ioos:station:DISL:MBLA:1,2010-02-11T08:08:00Z,30.4367,-88.0117,2.017,1.18,1111122 
DISL,ioos:station:DISL:MBLA:1,2010-02-11T08:10:00Z,30.4367,-88.0117,1.547,1.24,1111122 
DISL,ioos:station:DISL:MBLA:1,2010-02-11T08:13:00Z,30.4367,-88.0117,0.989,0.92,1111122 
DISL,ioos:station:DISL:MBLA:1,2010-02-11T08:15:00Z,30.4367,-88.0117,0.49,0.9,1111122 
DISL,ioos:station:DISL:MBLA:1,2010-02-11T09:03:00Z,30.4367,-88.0117,3.015,1.23,1111122 
DISL,ioos:station:DISL:MBLA:1,2010-02-11T09:05:00Z,30.4367,-88.0117,2.558,1.2,1111122 
DISL,ioos:station:DISL:MBLA:1,2010-02-11T09:08:00Z,30.4367,-88.0117,1.991,0.98,1111122 
DISL,ioos:station:DISL:MBLA:1,2010-02-11T09:10:00Z,30.4367,-88.0117,1.53,0.97,1111122 
DISL,ioos:station:DISL:MBLA:1,2010-02-11T09:12:00Z,30.4367,-88.0117,0.972,0.9,1111122 
DISL,ioos:station:DISL:MBLA:1,2010-02-11T09:15:00Z,30.4367,-88.0117,0.45,0.89,1111122 
DISL,ioos:station:DISL:MBLA:1,2010-02-11T10:03:00Z,30.4367,-88.0117,3.024,1.16,1111122 
DISL,ioos:station:DISL:MBLA:1,2010-02-11T10:05:00Z,30.4367,-88.0117,2.568,1.14,1111122 
DISL,ioos:station:DISL:MBLA:1,2010-02-11T10:08:00Z,30.4367,-88.0117,2.057,1.12,1111122 
DISL,ioos:station:DISL:MBLA:1,2010-02-11T10:10:00Z,30.4367,-88.0117,1.531,1.13,1111122 
DISL,ioos:station:DISL:MBLA:1,2010-02-11T10:13:00Z,30.4367,-88.0117,0.927,1.19,1111122 
DISL,ioos:station:DISL:MBLA:1,2010-02-11T10:15:00Z,30.4367,-88.0117,0.44,1.22,1111122 
DISL,ioos:station:DISL:MBLA:1,2010-02-11T11:03:00Z,30.4367,-88.0117,3.028,3.28,1111122 